Location: ?????
(55.8833°N, 37.6500°E)
Time: 17:47:02
(UTC+00:00)

STARLINK-81 - Pass Details

Date: 27 February 2020
Orbit: 529 x 530 km, 53.0° (Epoch: 01 April)

Event Time Altitude Azimuth Distance (km) Brightness Sun altitude
Rises 17:10:56 0° 270° (W) 2,669 8.6 -19.3°
Reaches altitude 10° 17:13:10 10° 266° (W) 1,779 7.3 -19.6°
Maximum altitude 17:17:06 54° 189° (S) 650 3.8 -20.1°
Enters shadow 17:17:38 49° 158° (SSE) 686 3.8 -20.2°
